• In Latvia
  • List of Countries
  • For 7 days
  • Water Temperature
  • Satellite Maps
  • Weather Map
  • Weather Widgets
  • user-avatar
    Login

    Hourly Weather Ordino

    Today, 6 December, Tuesday

    Time Temperature Precipitation Wind Pressure Humidity
    00:00 +1°C° 0 mm 1 mps 635 mmHg 94%
    01:00 +1°C° 0 mm 1 mps 635 mmHg 93%
    02:00 +1°C° 0 mm 1 mps 635 mmHg 92%
    03:00 +1°C° 0 mm 1 mps 635 mmHg 91%
    04:00 +1°C° 0 mm 1 mps 635 mmHg 90%
    05:00 0°C° 0 mm 1 mps 635 mmHg 89%
    06:00 0°C° 0 mm 1 mps 635 mmHg 88%
    07:00 +2°C° 0 mm 1 mps 636 mmHg 83%
    08:00 +3°C° 0 mm 1 mps 637 mmHg 77%
    09:00 +5°C° 0 mm 1 mps 638 mmHg 72%
    10:00 +6°C° 0 mm 1 mps 639 mmHg 68%
    11:00 +7°C° 0 mm 1 mps 639 mmHg 64%
    12:00 +9°C° 0 mm 1 mps 640 mmHg 60%
    13:00 +8°C° 0 mm 1 mps 639 mmHg 65%
    14:00 +8°C° 0 mm 1 mps 639 mmHg 70%
    15:00 +7°C° 0 mm 1 mps 639 mmHg 75%
    16:00 +5°C° 0 mm 1 mps 638 mmHg 79%
    17:00 +3°C° 0 mm 1 mps 638 mmHg 84%
    18:00 +1°C° 0 mm 1 mps 637 mmHg 89%
    19:00 +1°C° 0 mm 1 mps 637 mmHg 85%
    20:00 0°C° 0 mm 1 mps 637 mmHg 81%
    21:00 0°C° 0 mm 1 mps 637 mmHg 78%
    22:00 0°C° 0 mm 1 mps 637 mmHg 73%
    23:00 0°C° 0 mm 1 mps 637 mmHg 69%

    Tomorrow, 7 December, Wednesday

    Time Temperature Precipitation Wind Pressure Humidity
    00:00 -1°C° 0 mm 1 mps 637 mmHg 65%
    01:00 -1°C° 0 mm 1 mps 637 mmHg 63%
    02:00 -1°C° 0 mm 1 mps 637 mmHg 62%
    03:00 -1°C° 0 mm 1 mps 637 mmHg 60%
    04:00 -1°C° 0 mm 1 mps 637 mmHg 61%
    05:00 -3°C° 0 mm 0 mps 637 mmHg 61%
    06:00 -3°C° 0 mm 0 mps 637 mmHg 61%
    07:00 0°C° 0 mm 1 mps 638 mmHg 60%
    08:00 +2°C° 0 mm 1 mps 639 mmHg 59%
    09:00 +4°C° 0 mm 1 mps 640 mmHg 57%
    10:00 +6°C° 0 mm 1 mps 641 mmHg 56%
    11:00 +7°C° 0 mm 1 mps 641 mmHg 55%
    12:00 +9°C° 0 mm 1 mps 642 mmHg 53%
    13:00 +8°C° 0 mm 1 mps 641 mmHg 59%
    14:00 +7°C° 0 mm 1 mps 641 mmHg 65%
    15:00 +7°C° 0 mm 1 mps 641 mmHg 71%
    16:00 +4°C° 0 mm 1 mps 640 mmHg 76%
    17:00 +2°C° 0 mm 1 mps 639 mmHg 81%
    18:00 0°C° 0 mm 1 mps 639 mmHg 86%
    19:00 0°C° 0 mm 1 mps 639 mmHg 85%
    20:00 0°C° 0 mm 1 mps 639 mmHg 84%
    21:00 0°C° 0 mm 1 mps 639 mmHg 83%
    22:00 0°C° 0 mm 1 mps 639 mmHg 83%
    23:00 0°C° 0 mm 1 mps 639 mmHg 83%

    Day after tomorrow, 8 December, Thursday

    Time Temperature Precipitation Wind Pressure Humidity
    00:00 0°C° 0 mm 1 mps 639 mmHg 82%
    01:00 0°C° 0 mm 1 mps 639 mmHg 81%
    02:00 0°C° 0 mm 1 mps 639 mmHg 79%
    03:00 -1°C° 0 mm 1 mps 639 mmHg 78%
    04:00 -1°C° 0 mm 1 mps 639 mmHg 75%
    05:00 -1°C° 0 mm 1 mps 639 mmHg 73%
    06:00 -1°C° 0 mm 1 mps 639 mmHg 70%
    07:00 +1°C° 0 mm 1 mps 640 mmHg 65%
    08:00 +3°C° 0 mm 1 mps 641 mmHg 60%
    09:00 +4°C° 0 mm 1 mps 642 mmHg 55%
    10:00 +6°C° 0 mm 1 mps 642 mmHg 52%
    11:00 +6°C° 0 mm 2 mps 643 mmHg 49%
    12:00 +8°C° 0 mm 2 mps 643 mmHg 46%
    13:00 +7°C° 0 mm 2 mps 643 mmHg 51%
    14:00 +7°C° 0 mm 1 mps 642 mmHg 57%
    15:00 +7°C° 0 mm 1 mps 642 mmHg 63%
    16:00 +4°C° 0 mm 1 mps 641 mmHg 66%
    17:00 +2°C° 0 mm 1 mps 640 mmHg 69%
    18:00 0°C° 0 mm 1 mps 640 mmHg 71%
    19:00 0°C° 0 mm 1 mps 640 mmHg 67%
    20:00 0°C° 0 mm 1 mps 640 mmHg 63%
    21:00 0°C° 0 mm 1 mps 640 mmHg 58%
    22:00 0°C° 0 mm 1 mps 640 mmHg 58%
    23:00 0°C° 0 mm 1 mps 640 mmHg 57%

    9 December, Friday

    Time Temperature Precipitation Wind Pressure Humidity
    00:00 0°C° 0 mm 1 mps 639 mmHg 56%
    01:00 0°C° 0 mm 1 mps 639 mmHg 57%
    02:00 0°C° 0 mm 1 mps 639 mmHg 57%
    03:00 0°C° 0 mm 1 mps 639 mmHg 57%
    04:00 0°C° 0 mm 1 mps 639 mmHg 56%
    05:00 0°C° 0 mm 1 mps 639 mmHg 55%
    06:00 0°C° 0 mm 1 mps 639 mmHg 54%
    07:00 +1°C° 0 mm 1 mps 640 mmHg 52%
    08:00 +3°C° 0 mm 1 mps 640 mmHg 50%
    09:00 +5°C° 0 mm 1 mps 641 mmHg 49%
    10:00 +7°C° 0 mm 1 mps 641 mmHg 49%
    11:00 +8°C° 0 mm 1 mps 642 mmHg 49%
    12:00 +10°C° 0 mm 1 mps 642 mmHg 49%
    13:00 +9°C° 0 mm 1 mps 642 mmHg 56%
    14:00 +8°C° 0 mm 1 mps 641 mmHg 63%
    15:00 +7°C° 0 mm 1 mps 640 mmHg 70%
    16:00 +5°C° 0 mm 1 mps 639 mmHg 73%
    17:00 +3°C° 0 mm 1 mps 639 mmHg 77%
    18:00 +1°C° 0 mm 1 mps 638 mmHg 80%
    19:00 +1°C° 0 mm 1 mps 638 mmHg 77%
    20:00 +1°C° 0 mm 1 mps 638 mmHg 73%
    21:00 +1°C° 0 mm 1 mps 638 mmHg 70%
    22:00 +1°C° 0 mm 1 mps 638 mmHg 68%
    23:00 +1°C° 0 mm 1 mps 638 mmHg 65%

    10 December, Saturday

    Time Temperature Precipitation Wind Pressure Humidity
    00:00 +1°C° 0 mm 1 mps 638 mmHg 63%
    01:00 +1°C° 0 mm 1 mps 637 mmHg 63%
    02:00 +1°C° 0 mm 1 mps 637 mmHg 62%
    03:00 +1°C° 0 mm 1 mps 637 mmHg 61%
    04:00 +1°C° 0 mm 1 mps 637 mmHg 63%
    05:00 +1°C° 0 mm 1 mps 636 mmHg 64%
    06:00 +1°C° 0 mm 1 mps 636 mmHg 65%
    07:00 +2°C° 0 mm 1 mps 637 mmHg 64%
    08:00 +4°C° 0 mm 1 mps 638 mmHg 63%
    09:00 +5°C° 0 mm 1 mps 638 mmHg 61%
    10:00 +7°C° 0 mm 1 mps 639 mmHg 59%
    11:00 +9°C° 0 mm 1 mps 639 mmHg 57%
    12:00 +10°C° 0 mm 1 mps 640 mmHg 55%
    13:00 +10°C° 0 mm 1 mps 639 mmHg 61%
    14:00 +9°C° 0 mm 1 mps 638 mmHg 67%
    15:00 +8°C° 0 mm 1 mps 638 mmHg 74%
    16:00 +6°C° 0 mm 1 mps 637 mmHg 78%
    17:00 +3°C° 0 mm 1 mps 636 mmHg 83%
    18:00 +1°C° 0 mm 1 mps 635 mmHg 88%
    19:00 +1°C° 0 mm 1 mps 635 mmHg 87%
    20:00 +1°C° 0 mm 1 mps 635 mmHg 87%
    21:00 +1°C° 0 mm 1 mps 635 mmHg 86%
    22:00 +1°C° 0 mm 1 mps 635 mmHg 86%
    23:00 +1°C° 0 mm 1 mps 635 mmHg 85%

    11 December, Sunday

    Time Temperature Precipitation Wind Pressure Humidity
    00:00 +1°C° 0 mm 1 mps 635 mmHg 85%
    01:00 +1°C° 0 mm 1 mps 635 mmHg 84%
    02:00 +1°C° 0 mm 1 mps 635 mmHg 82%
    03:00 -1°C° 0 mm 2 mps 635 mmHg 81%
    04:00 +1°C° 0 mm 1 mps 635 mmHg 80%
    05:00 +1°C° 0 mm 1 mps 635 mmHg 79%
    06:00 0°C° 0 mm 1 mps 634 mmHg 78%
    07:00 +2°C° 0 mm 1 mps 635 mmHg 73%
    08:00 +4°C° 0 mm 1 mps 636 mmHg 69%
    09:00 +5°C° 0 mm 1 mps 637 mmHg 64%
    10:00 +6°C° 0 mm 2 mps 638 mmHg 59%
    11:00 +7°C° 0 mm 2 mps 638 mmHg 53%
    12:00 +9°C° 0 mm 2 mps 638 mmHg 48%
    13:00 +8°C° 0 mm 2 mps 638 mmHg 52%
    14:00 +7°C° 0 mm 2 mps 637 mmHg 56%
    15:00 +6°C° 0 mm 2 mps 637 mmHg 60%
    16:00 +4°C° 0 mm 2 mps 636 mmHg 64%
    17:00 +3°C° 0 mm 2 mps 636 mmHg 69%
    18:00 +1°C° 0 mm 2 mps 635 mmHg 73%
    19:00 +1°C° 0 mm 2 mps 635 mmHg 75%
    20:00 +1°C° 0 mm 2 mps 636 mmHg 76%
    21:00 +1°C° 0 mm 2 mps 636 mmHg 78%
    22:00 +2°C° 0 mm 2 mps 636 mmHg 79%
    23:00 +2°C° 0 mm 2 mps 636 mmHg 81%
    Show more